RH
16 13 12 11 9 9 13 18 12 10 11 27 47 57 66 62 66 71 72 72 75 70 66 67 94 96 77 77 100 99 98 89
16 16 13 11 11 9 8 8 13 15 16 10 10 15 25 39 63 66 66 73 75 72 81 80 70 62 97 94 73 96 100 70
15 15 14 13 12 12 12 11 12 13 14 14 15 19 24 30 27 29 38 63 69 75 79 80 80 67 54 67 90 90 94 90
18 18 17 16 15 14 14 14 14 14 15 15 14 14 14 18 23 18 21 52 55 60 56 64 67 68 58 54 64 54 88 68
22 22 22 23 22 20 18 17 16 16 16 17 15 13 13 14 17 25 38 28 32 36 64 72 63 60 73 77 73 70 73 68
29 30 33 33 31 29 28 27 26 24 22 20 18 16 11 14 15 19 27 40 34 32 69 95 80 73 76 91 83 84 80 79
44 45 43 38 35 30 30 30 29 27 23 19 17 18 14 11 10 11 12 21 36 93 68 80 94 99 54 86 95 100 98 91
46 39 25 15 11 13 12 10 9 12 16 18 15 7 5 14 16 12 13 12 15 72 55 54 94 95 97 82 90 88 93 96
15 13 11 14 14 10 6 5 4 6 7 6 4 4 3 3 8 14 14 15 16 17 20 54 60 96 96 95 93 96 94 96
19 18 14 10 6 4 5 5 4 4 5 4 6 7 6 6 5 11 11 14 16 22 23 33 90 94 86 95 97 81 99 75
13 10 11 9 6 6 6 6 11 25 31 32 36 50 54 41 41 43 48 53 43 47 32 27 98 97 92 90 98 73 100 79
10 8 9 14 19 20 24 35 43 48 78 73 70 84 86 67 54 57 49 95 96 82 91 75 57 54 89 87 77 78 74 84
9 8 9 13 26 79 93 70 60 67 79 100 88 76 88 73 71 74 81 88 99 67 63 99 100 84 62 85 73 89 90 86
10 14 24 43 76 93 99 97 79 88 96 83 96 100 94 98 100 100 98 97 90 81 80 78 96 95 85 93 75 60 73 66
23 28 34 45 55 60 65 65 70 70 75 75 76 84 99 72 100 100 100 100 100 90 99 100 87 98 98 98 100 91 91 93
24 28 33 39 47 60 67 78 95 98 100 100 100 77 83 84 99 98 99 80 80 89 62 69 94 100 100 100 100 98 95 98
12 12 12 16 61 100 100 100 100 99 93 94 92 87 94 90 81 99 70 52 46 49 43 58 60 94 100 100 100 100 97 99
15 15 20 50 70 84 84 100 98 98 100 100 100 89 79 86 77 68 66 56 45 39 41 36 83 98 100 100 100 99 100 100
27 53 71 83 81 82 91 90 90 99 98 86 73 78 79 71 76 69 64 63 53 34 30 32 30 100 100 100 100 100 100 100
Wind_Speed
34 33 31 30 28 27 28 29 28 31 35 39 37 38 37 41 43 43 42 45 50 53 56 56 56 52 48 53 55 51 51 58
40 38 35 34 32 30 30 33 33 34 35 36 41 43 44 43 43 46 47 47 47 50 51 56 58 56 60 56 66 55 54 65
40 41 39 37 37 39 40 40 40 40 40 41 44 47 50 44 44 49 52 50 50 52 53 56 58 60 61 66 61 57 48 57
45 46 45 45 46 45 46 47 48 48 49 49 51 51 53 55 55 56 56 54 57 56 58 60 61 63 63 62 63 61 64 59
50 49 51 53 53 52 51 53 55 57 58 60 59 61 61 62 64 64 65 62 59 61 62 61 60 65 69 67 61 62 64 65
57 59 61 60 60 59 59 61 62 64 65 67 69 68 71 73 70 73 74 73 69 70 68 66 63 62 67 69 68 67 68 69
63 63 62 62 63 64 67 68 71 71 70 71 73 76 79 80 86 84 84 82 76 65 80 70 72 68 72 72 70 73 77 78
59 59 59 61 66 68 68 69 71 74 76 77 81 84 85 88 91 92 95 92 93 80 79 75 79 68 74 77 69 74 80 88
60 62 66 71 73 75 75 77 80 82 85 88 89 91 91 93 96 98 99 103 97 86 82 83 80 77 66 74 75 65 71 67
67 71 77 81 82 83 86 88 88 89 89 89 89 90 91 93 98 98 102 103 104 92 83 84 77 73 76 79 72 78 78 77
74 79 84 86 87 88 89 88 86 80 75 71 72 71 71 72 73 73 69 69 75 76 78 81 74 68 78 79 77 76 72 79
81 85 88 88 85 84 83 75 67 61 57 58 58 57 55 60 65 65 65 69 65 65 68 75 93 97 81 74 90 90 85 81
88 88 89 88 79 65 61 65 58 59 58 58 60 54 53 56 58 61 60 63 61 60 66 66 57 60 92 71 67 78 76 74
89 88 83 77 70 66 70 71 68 64 64 63 63 59 55 48 53 51 48 46 46 46 44 51 52 51 59 63 62 66 74 74
84 80 76 69 64 61 60 57 54 53 57 58 56 56 53 58 53 40 37 40 33 38 41 37 46 39 34 37 40 47 53 52
76 73 67 62 59 57 54 50 48 49 50 48 47 49 41 39 43 36 33 29 33 37 35 38 34 26 25 32 43 42 39 40
70 65 62 60 60 54 52 50 49 49 49 47 46 46 43 40 42 39 34 29 29 33 34 33 39 43 30 22 18 33 34 33
58 55 50 49 48 47 43 44 46 51 54 51 49 49 50 49 51 51 47 41 38 33 37 37 37 37 41 35 31 25 22 24
57 53 50 47 48 49 49 47 46 46 44 46 45 48 49 50 44 44 46 48 43 34 35 38 38 37 37 32 32 30 25 27
Wind_Direction
276 276 272 272 271 260 257 259 263 269 274 277 274 271 271 273 276 275 273 277 277 270 270 269 262 266 255 255 257 252 259 267
274 275 274 273 270 266 256 256 257 271 273 276 283 282 275 273 270 272 274 274 276 277 275 272 272 268 264 268 258 246 254 270
268 269 270 269 270 270 268 267 272 276 276 275 280 283 289 285 278 277 276 276 276 272 273 273 272 269 266 260 271 253 266 282
268 269 270 271 272 272 272 273 276 281 281 282 281 282 282 285 283 280 274 273 274 272 273 275 275 273 270 269 268 268 270 269
269 267 269 272 274 274 273 274 276 278 279 281 280 277 278 279 283 284 283 273 268 270 268 263 265 272 273 273 268 265 264 267
269 271 274 273 271 271 271 272 271 271 271 273 274 274 274 276 274 277 280 278 270 268 262 263 262 258 264 268 271 270 264 261
275 276 276 277 276 276 275 275 275 275 274 273 273 272 270 270 275 274 274 275 267 264 258 256 258 255 261 263 268 271 268 267
280 279 277 276 280 285 282 279 275 273 273 272 271 272 269 267 265 267 271 270 270 263 265 271 259 249 256 265 267 264 266 252
285 284 284 289 288 287 287 287 286 285 281 280 279 277 271 266 264 263 261 265 267 265 261 260 269 260 249 261 258 256 264 264
288 289 290 292 292 291 292 290 286 283 282 279 276 274 271 266 263 265 264 263 265 268 259 257 255 259 259 257 263 264 264 271
293 291 287 287 289 289 287 285 284 286 286 283 279 278 277 273 273 269 267 265 268 267 263 255 255 256 259 253 261 264 266 266
290 289 287 286 287 287 287 288 289 285 279 281 279 277 275 276 272 264 260 261 261 263 263 257 253 257 260 259 254 260 262 263
288 285 284 284 288 287 282 287 284 279 277 279 281 287 285 282 280 275 271 270 267 271 264 257 264 267 251 258 261 257 257 260
286 286 287 287 287 282 280 281 281 274 273 275 277 277 276 277 268 267 265 265 265 267 268 266 266 260 256 256 259 259 256 257
288 288 288 287 286 283 283 284 281 277 275 275 277 280 284 277 280 277 268 270 266 271 270 267 269 276 267 261 253 248 248 247
291 290 290 289 286 283 282 281 277 272 270 274 276 279 286 286 279 283 281 281 281 281 278 274 261 236 248 246 244 243 244 246
292 289 287 280 271 268 271 271 273 274 274 276 277 280 283 285 288 287 282 270 271 274 275 265 270 255 247 254 246 242 243 245
293 292 288 284 283 280 275 275 273 270 269 271 273 275 279 280 283 285 284 283 280 266 266 262 255 262 269 271 253 250 239 240
292 288 284 279 279 280 281 280 279 278 278 276 273 271 272 273 275 277 279 281 278 272 263 262 256 254 253 250 254 263 257 240